| time (UTC) | temp C | wind direction | speed KPH | gust KPH | rain 1hr cm | rain 24hr cm | rain mn cm | humidity % | barometer mb |
| 20260507021009 | 14 | 326 | 1.6 | 9.7 | 0.05 | 0.69 | 0.69 | 82 | 1009.6 |
| 20260507020510 | 14 | 320 | 1.6 | 9.7 | 0.05 | 0.69 | 0.69 | 82 | 1009.5 |
| 20260507020027 | 14 | 321 | 4.8 | 9.7 | 0.05 | 0.69 | 0.69 | 82 | 1009.6 |
| 20260507015504 | 14 | 16 | 3.2 | 9.7 | 0.05 | 0.69 | 0.69 | 82 | 1009.6 |
| 20260507015003 | 15 | 316 | 4.8 | 9.7 | 0.05 | 0.69 | 0.69 | 82 | 1009.6 |
| 20260507014516 | 15 | 301 | 3.2 | 16.1 | 0.05 | 0.69 | 0.69 | 83 | 1009.7 |
| 20260507014005 | 15 | 319 | 6.4 | 16.1 | 0.05 | 0.69 | 0.69 | 82 | 1009.8 |
| 20260507013507 | 15 | 307 | 4.8 | 11.3 | 0.05 | 0.69 | 0.69 | 84 | 1009.9 |
| 20260507013024 | 15 | 328 | 3.2 | 12.9 | 0.05 | 0.69 | 0.69 | 83 | 1009.7 |
| 20260507012508 | 15 | 17 | 4.8 | 12.9 | 0.03 | 0.66 | 0.66 | 82 | 1009.9 |
| 20260507012008 | 15 | 326 | 4.8 | 9.7 | 0.00 | 0.64 | 0.64 | 83 | 1009.8 |
| 20260507011509 | 15 | 329 | 3.2 | 8.0 | 0.00 | 0.64 | 0.64 | 82 | 1009.7 |
| 20260507011003 | 15 | 344 | 4.8 | 9.7 | 0.00 | 0.64 | 0.64 | 83 | 1009.5 |
| 20260507010504 | 15 | 352 | 4.8 | 14.5 | 0.00 | 0.64 | 0.64 | 83 | 1009.5 |
| 20260507010013 | 15 | 317 | 6.4 | 14.5 | 0.00 | 0.64 | 0.64 | 83 | 1009.6 |
| 20260507005505 | 15 | 307 | 4.8 | 8.0 | 0.00 | 0.64 | 0.64 | 84 | 1009.5 |
| 20260507005007 | 15 | 302 | 3.2 | 11.3 | 0.00 | 0.64 | 0.64 | 84 | 1009.2 |
| 20260507004533 | 16 | 311 | 1.6 | 11.3 | 0.00 | 0.64 | 0.64 | 84 | 1009.2 |
| 20260507004009 | 16 | 321 | 3.2 | 9.7 | 0.00 | 0.64 | 0.64 | 84 | 1009.1 |
| 20260507003503 | 16 | 302 | 3.2 | 12.9 | 0.00 | 0.64 | 0.64 | 83 | 1009.1 |
| 20260507003008 | 16 | 321 | 8.0 | 12.9 | 0.00 | 0.64 | 0.64 | 84 | 1009.3 |
| 20260507002504 | 16 | 321 | 3.2 | 11.3 | 0.00 | 0.64 | 0.64 | 85 | 1009.1 |
| 20260507002008 | 16 | 328 | 3.2 | 11.3 | 0.00 | 0.64 | 0.64 | 86 | 1009.0 |
| 20260507001525 | 16 | 333 | 4.8 | 8.0 | 0.00 | 0.64 | 0.64 | 87 | 1008.9 |
| 20260507001007 | 16 | 299 | 4.8 | 8.0 | 0.00 | 0.64 | 0.64 | 89 | 1008.6 |
| 20260507000509 | 17 | 299 | 3.2 | 6.4 | 0.00 | 0.64 | 0.64 | 90 | 1008.4 |
| 20260507000028 | 17 | 3 | 1.6 | 4.8 | 0.00 | 0.64 | 0.64 | 90 | 1008.3 |
| 20260506235508 | 17 | 303 | 1.6 | 4.8 | 0.08 | 0.64 | 0.64 | 90 | 1007.9 |
| 20260506235004 | 17 | 257 | 1.6 | 8.0 | 0.10 | 0.64 | 0.64 | 89 | 1007.7 |
| 20260506234511 | 17 | 210 | 3.2 | 8.0 | 0.10 | 0.64 | 0.64 | 89 | 1007.6 |
| 20260506234006 | 17 | 257 | 3.2 | 8.0 | 0.10 | 0.64 | 0.64 | 90 | 1007.5 |
| 20260506233506 | 17 | 263 | 3.2 | 8.0 | 0.10 | 0.64 | 0.64 | 90 | 1007.5 |
| 20260506233020 | 17 | 269 | 4.8 | 8.0 | 0.10 | 0.64 | 0.64 | 91 | 1007.6 |
| 20260506232506 | 17 | 221 | 1.6 | 6.4 | 0.10 | 0.64 | 0.64 | 91 | 1007.5 |
| 20260506232011 | 17 | 291 | 1.6 | 6.4 | 0.10 | 0.64 | 0.64 | 91 | 1007.5 |
| 20260506231534 | 17 | 293 | 1.6 | 6.4 | 0.10 | 0.64 | 0.64 | 91 | 1007.8 |
| 20260506231003 | 17 | 274 | 1.6 | 6.4 | 0.10 | 0.64 | 0.64 | 91 | 1007.6 |
| 20260506230504 | 17 | 264 | 1.6 | 11.3 | 0.10 | 0.64 | 0.64 | 90 | 1007.6 |
| 20260506230014 | 17 | 298 | 3.2 | 11.3 | 0.10 | 0.64 | 0.64 | 90 | 1007.6 |
| 20260506225507 | 17 | 293 | 1.6 | 4.8 | 0.03 | 0.56 | 0.56 | 89 | 1007.6 |
| 20260506225010 | 17 | 295 | 0.0 | 1.6 | 0.00 | 0.53 | 0.53 | 89 | 1007.5 |
| 20260506224522 | 18 | 295 | 0.0 | 3.2 | 0.00 | 0.53 | 0.53 | 88 | 1007.5 |
| 20260506224007 | 18 | 295 | 0.0 | 3.2 | 0.00 | 0.53 | 0.53 | 88 | 1007.4 |
| 20260506223513 | 18 | 285 | 1.6 | 1.6 | 0.00 | 0.53 | 0.53 | 87 | 1007.5 |
| 20260506223043 | 18 | 247 | 0.0 | 4.8 | 0.00 | 0.53 | 0.53 | 87 | 1007.3 |
| 20260506222507 | 18 | 200 | 0.0 | 4.8 | 0.00 | 0.53 | 0.53 | 86 | 1007.4 |
| 20260506222006 | 18 | 262 | 1.6 | 3.2 | 0.00 | 0.53 | 0.53 | 85 | 1007.4 |
| 20260506221519 | 18 | 289 | 0.0 | 3.2 | 0.00 | 0.53 | 0.53 | 85 | 1007.5 |
| 20260506221010 | 18 | 289 | 0.0 | 6.4 | 0.00 | 0.53 | 0.53 | 84 | 1007.5 |
| 20260506220509 | 18 | 288 | 3.2 | 6.4 | 0.00 | 0.53 | 0.53 | 84 | 1007.4 |
| 20260506220027 | 18 | 275 | 3.2 | 6.4 | 0.00 | 0.53 | 0.53 | 83 | 1007.2 |
| 20260506215509 | 18 | 268 | 3.2 | 8.0 | 0.00 | 0.53 | 0.53 | 83 | 1007.0 |
| 20260506215011 | 18 | 229 | 3.2 | 8.0 | 0.00 | 0.53 | 0.53 | 83 | 1007.0 |
| 20260506214510 | 18 | 276 | 1.6 | 6.4 | 0.00 | 0.53 | 0.53 | 83 | 1006.9 |
| 20260506214007 | 18 | 210 | 3.2 | 8.0 | 0.00 | 0.53 | 0.53 | 83 | 1006.9 |
| 20260506213507 | 18 | 247 | 3.2 | 8.0 | 0.00 | 0.53 | 0.53 | 83 | 1007.0 |
| 20260506213020 | 18 | 179 | 3.2 | 11.3 | 0.00 | 0.53 | 0.53 | 83 | 1006.8 |
| 20260506212505 | 18 | 147 | 3.2 | 12.9 | 0.00 | 0.53 | 0.53 | 82 | 1007.0 |
| 20260506212011 | 19 | 288 | 6.4 | 12.9 | 0.00 | 0.53 | 0.53 | 82 | 1006.9 |
| 20260506211537 | 19 | 236 | 4.8 | 12.9 | 0.00 | 0.53 | 0.53 | 81 | 1006.8 |
| 20260506211010 | 19 | 26 | 4.8 | 12.9 | 0.00 | 0.53 | 0.53 | 80 | 1006.5 |
| 20260506210503 | 19 | 320 | 4.8 | 12.9 | 0.00 | 0.53 | 0.53 | 81 | 1006.6 |
| 20260506210016 | 20 | 269 | 4.8 | 14.5 | 0.00 | 0.53 | 0.53 | 80 | 1006.6 |
| 20260506205506 | 20 | 181 | 4.8 | 14.5 | 0.00 | 0.53 | 0.53 | 80 | 1006.6 |
| 20260506205010 | 20 | 252 | 4.8 | 12.9 | 0.00 | 0.53 | 0.53 | 79 | 1006.5 |
| 20260506204524 | 20 | 149 | 4.8 | 12.9 | 0.00 | 0.53 | 0.53 | 80 | 1006.5 |
| 20260506204003 | 20 | 270 | 6.4 | 12.9 | 0.00 | 0.53 | 0.53 | 80 | 1006.5 |
| 20260506203503 | 20 | 210 | 8.0 | 12.9 | 0.00 | 0.53 | 0.53 | 81 | 1006.4 |
| 20260506203018 | 20 | 244 | 4.8 | 19.3 | 0.00 | 0.53 | 0.53 | 82 | 1006.5 |
| 20260506202504 | 19 | 292 | 4.8 | 19.3 | 0.00 | 0.53 | 0.53 | 83 | 1006.6 |
| 20260506202005 | 19 | 267 | 9.7 | 19.3 | 0.00 | 0.53 | 0.53 | 82 | 1006.6 |
| 20260506201515 | 19 | 227 | 8.0 | 14.5 | 0.00 | 0.53 | 0.53 | 81 | 1006.6 |
| 20260506201003 | 18 | 234 | 8.0 | 16.1 | 0.00 | 0.53 | 0.53 | 82 | 1006.5 |
| 20260506200503 | 18 | 189 | 8.0 | 17.7 | 0.00 | 0.53 | 0.53 | 82 | 1006.5 |
| 20260506200005 | 18 | 275 | 9.7 | 17.7 | 0.00 | 0.53 | 0.53 | 82 | 1006.6 |
| 20260506195503 | 18 | 229 | 6.4 | 12.9 | 0.00 | 0.53 | 0.53 | 83 | 1006.7 |
| 20260506195004 | 18 | 220 | 6.4 | 12.9 | 0.00 | 0.53 | 0.53 | 83 | 1006.7 |
| 20260506194508 | 18 | 272 | 6.4 | 14.5 | 0.00 | 0.53 | 0.53 | 82 | 1006.7 |
| 20260506194004 | 18 | 186 | 8.0 | 14.5 | 0.00 | 0.53 | 0.53 | 82 | 1006.8 |
| 20260506193505 | 18 | 317 | 4.8 | 9.7 | 0.00 | 0.53 | 0.53 | 82 | 1006.8 |
| 20260506193009 | 18 | 227 | 6.4 | 16.1 | 0.00 | 0.53 | 0.53 | 82 | 1006.8 |
| 20260506192502 | 18 | 199 | 4.8 | 16.1 | 0.00 | 0.53 | 0.53 | 82 | 1006.8 |
| 20260506192004 | 18 | 283 | 8.0 | 16.1 | 0.00 | 0.53 | 0.53 | 81 | 1006.8 |
| 20260506191508 | 18 | 191 | 4.8 | 14.5 | 0.00 | 0.53 | 0.53 | 83 | 1006.9 |
| 20260506191007 | 18 | 254 | 8.0 | 14.5 | 0.00 | 0.53 | 0.53 | 82 | 1006.9 |
| 20260506190502 | 18 | 233 | 6.4 | 19.3 | 0.00 | 0.53 | 0.53 | 82 | 1007.0 |
| 20260506190011 | 18 | 218 | 6.4 | 19.3 | 0.00 | 0.53 | 0.53 | 82 | 1006.9 |
| 20260506185504 | 18 | 240 | 9.7 | 19.3 | 0.00 | 0.53 | 0.53 | 82 | 1006.9 |
| 20260506185002 | 18 | 278 | 6.4 | 17.7 | 0.00 | 0.53 | 0.53 | 83 | 1007.0 |
| 20260506184503 | 18 | 250 | 8.0 | 17.7 | 0.00 | 0.53 | 0.53 | 82 | 1007.1 |
| 20260506184004 | 18 | 271 | 9.7 | 17.7 | 0.00 | 0.53 | 0.53 | 82 | 1007.1 |
| 20260506183502 | 18 | 207 | 6.4 | 17.7 | 0.00 | 0.53 | 0.53 | 84 | 1007.2 |
| 20260506183014 | 18 | 209 | 9.7 | 17.7 | 0.00 | 0.53 | 0.53 | 83 | 1007.2 |
| 20260506182505 | 18 | 190 | 6.4 | 17.7 | 0.00 | 0.53 | 0.53 | 84 | 1007.2 |
| 20260506182006 | 17 | 144 | 8.0 | 17.7 | 0.00 | 0.53 | 0.53 | 86 | 1007.2 |
| 20260506181510 | 17 | 228 | 4.8 | 12.9 | 0.00 | 0.53 | 0.53 | 87 | 1007.3 |
| 20260506181003 | 17 | 174 | 6.4 | 16.1 | 0.00 | 0.53 | 0.53 | 88 | 1007.5 |
| 20260506180504 | 17 | 219 | 6.4 | 16.1 | 0.00 | 0.53 | 0.53 | 88 | 1007.5 |
| 20260506180011 | 17 | 184 | 4.8 | 14.5 | 0.00 | 0.53 | 0.53 | 88 | 1007.5 |
| 20260506175502 | 16 | 205 | 8.0 | 14.5 | 0.00 | 0.53 | 0.53 | 88 | 1007.5 |
| 20260506175004 | 16 | 172 | 4.8 | 14.5 | 0.00 | 0.53 | 0.53 | 88 | 1007.5 |
| 20260506174512 | 16 | 202 | 6.4 | 14.5 | 0.00 | 0.53 | 0.53 | 88 | 1007.6 |
| 20260506174004 | 16 | 200 | 4.8 | 14.5 | 0.00 | 0.53 | 0.53 | 88 | 1007.5 |
| 20260506173505 | 16 | 158 | 6.4 | 14.5 | 0.00 | 0.53 | 0.53 | 88 | 1007.5 |
| 20260506173013 | 16 | 175 | 6.4 | 16.1 | 0.00 | 0.53 | 0.53 | 88 | 1007.5 |
| 20260506172504 | 16 | 223 | 6.4 | 17.7 | 0.00 | 0.53 | 0.53 | 88 | 1007.5 |
| 20260506172002 | 16 | 167 | 6.4 | 17.7 | 0.00 | 0.53 | 0.53 | 88 | 1007.6 |
| 20260506171507 | 16 | 225 | 4.8 | 17.7 | 0.00 | 0.53 | 0.53 | 88 | 1007.5 |
| 20260506171004 | 16 | 167 | 8.0 | 17.7 | 0.00 | 0.53 | 0.53 | 88 | 1007.6 |
| 20260506170503 | 16 | 160 | 8.0 | 16.1 | 0.00 | 0.53 | 0.53 | 88 | 1007.6 |
| 20260506170014 | 16 | 214 | 6.4 | 16.1 | 0.00 | 0.53 | 0.53 | 88 | 1007.6 |
| 20260506165510 | 16 | 249 | 4.8 | 14.5 | 0.00 | 0.53 | 0.53 | 89 | 1007.5 |
| 20260506165005 | 16 | 169 | 6.4 | 11.3 | 0.00 | 0.53 | 0.53 | 89 | 1007.5 |
| 20260506164516 | 16 | 160 | 6.4 | 12.9 | 0.00 | 0.53 | 0.53 | 89 | 1007.5 |
| 20260506164004 | 16 | 223 | 6.4 | 16.1 | 0.00 | 0.53 | 0.53 | 89 | 1007.5 |
| 20260506163503 | 16 | 150 | 8.0 | 16.1 | 0.03 | 0.53 | 0.53 | 89 | 1007.4 |
| 20260506163011 | 16 | 188 | 8.0 | 12.9 | 0.03 | 0.53 | 0.53 | 90 | 1007.5 |
| 20260506162502 | 16 | 223 | 3.2 | 14.5 | 0.05 | 0.53 | 0.53 | 90 | 1007.5 |
| 20260506162005 | 16 | 176 | 3.2 | 14.5 | 0.05 | 0.53 | 0.53 | 90 | 1007.5 |
| 20260506161516 | 16 | 149 | 6.4 | 14.5 | 0.08 | 0.53 | 0.53 | 90 | 1007.6 |
| 20260506161007 | 16 | 155 | 6.4 | 12.9 | 0.10 | 0.53 | 0.53 | 90 | 1007.8 |
| 20260506160506 | 16 | 177 | 6.4 | 12.9 | 0.10 | 0.53 | 0.53 | 90 | 1007.8 |
| 20260506160017 | 16 | 222 | 4.8 | 12.9 | 0.13 | 0.53 | 0.53 | 91 | 1007.7 |
| 20260506155502 | 16 | 200 | 3.2 | 11.3 | 0.15 | 0.53 | 0.53 | 91 | 1007.7 |
| 20260506155003 | 16 | 238 | 4.8 | 12.9 | 0.18 | 0.53 | 0.53 | 91 | 1007.7 |
| 20260506154512 | 16 | 169 | 6.4 | 12.9 | 0.18 | 0.53 | 0.53 | 91 | 1007.6 |
| 20260506154004 | 16 | 169 | 4.8 | 11.3 | 0.20 | 0.53 | 0.53 | 91 | 1007.5 |
| 20260506153504 | 16 | 154 | 3.2 | 12.9 | 0.18 | 0.51 | 0.51 | 91 | 1007.6 |
| 20260506153018 | 16 | 145 | 6.4 | 12.9 | 0.20 | 0.51 | 0.51 | 91 | 1007.0 |
| 20260506152506 | 16 | 128 | 6.4 | 14.5 | 0.18 | 0.48 | 0.48 | 91 | 1007.3 |
| 20260506152007 | 16 | 149 | 4.8 | 14.5 | 0.18 | 0.48 | 0.48 | 91 | 1007.6 |
| 20260506151505 | 16 | 145 | 8.0 | 14.5 | 0.18 | 0.46 | 0.46 | 91 | 1007.9 |
| 20260506151004 | 16 | 191 | 4.8 | 16.1 | 0.15 | 0.43 | 0.43 | 91 | 1008.1 |
| 20260506150504 | 16 | 136 | 6.4 | 16.1 | 0.15 | 0.43 | 0.43 | 90 | 1008.1 |
| 20260506150018 | 16 | 175 | 3.2 | 11.3 | 0.15 | 0.41 | 0.41 | 90 | 1008.3 |
| 20260506145506 | 16 | 177 | 4.8 | 12.9 | 0.15 | 0.38 | 0.38 | 90 | 1008.3 |
| 20260506145006 | 16 | 187 | 6.4 | 16.1 | 0.13 | 0.36 | 0.36 | 89 | 1008.5 |
| 20260506144519 | 16 | 167 | 4.8 | 16.1 | 0.15 | 0.36 | 0.36 | 89 | 1008.6 |
| 20260506144006 | 16 | 242 | 4.8 | 14.5 | 0.15 | 0.33 | 0.33 | 89 | 1008.6 |
| 20260506143509 | 16 | 176 | 8.0 | 14.5 | 0.18 | 0.33 | 0.33 | 89 | 1008.6 |
| 20260506143015 | 16 | 200 | 4.8 | 14.5 | 0.20 | 0.30 | 0.30 | 89 | 1008.5 |
| 20260506142504 | 16 | 172 | 8.0 | 16.1 | 0.23 | 0.30 | 0.30 | 89 | 1008.4 |
| 20260506142005 | 16 | 181 | 9.7 | 16.1 | 0.23 | 0.30 | 0.30 | 89 | 1008.3 |
| 20260506141521 | 16 | 162 | 6.4 | 14.5 | 0.20 | 0.28 | 0.28 | 89 | 1008.1 |
| 20260506141009 | 16 | 150 | 6.4 | 14.5 | 0.20 | 0.28 | 0.28 | 88 | 1008.1 |
| 20260506140506 | 16 | 170 | 4.8 | 16.1 | 0.20 | 0.28 | 0.28 | 89 | 1008.0 |
| 20260506140022 | 16 | 148 | 6.4 | 16.1 | 0.18 | 0.25 | 0.25 | 88 | 1007.9 |
| 20260506135505 | 16 | 217 | 6.4 | 16.1 | 0.15 | 0.23 | 0.23 | 88 | 1008.1 |
| 20260506135001 | 16 | 181 | 4.8 | 16.1 | 0.18 | 0.23 | 0.23 | 88 | 1007.9 |
| 20260506134514 | 16 | 172 | 3.2 | 9.7 | 0.15 | 0.20 | 0.20 | 87 | 1008.0 |
| 20260506134005 | 16 | 150 | 4.8 | 9.7 | 0.13 | 0.18 | 0.18 | 86 | 1007.9 |
| 20260506133505 | 16 | 147 | 3.2 | 8.0 | 0.13 | 0.15 | 0.15 | 86 | 1008.1 |
| 20260506133021 | 16 | 210 | 3.2 | 8.0 | 0.08 | 0.10 | 0.10 | 85 | 1008.2 |
| 20260506132509 | 16 | 207 | 3.2 | 8.0 | 0.05 | 0.08 | 0.08 | 85 | 1008.2 |
| 20260506132012 | 16 | 193 | 4.8 | 8.0 | 0.05 | 0.08 | 0.08 | 84 | 1008.1 |
| 20260506131522 | 16 | 141 | 3.2 | 8.0 | 0.05 | 0.08 | 0.08 | 84 | 1008.2 |
| 20260506131007 | 16 | 160 | 3.2 | 8.0 | 0.08 | 0.08 | 0.08 | 84 | 1008.1 |
| 20260506130506 | 16 | 141 | 4.8 | 8.0 | 0.08 | 0.08 | 0.08 | 84 | 1008.1 |
| 20260506130019 | 16 | 167 | 4.8 | 8.0 | 0.08 | 0.08 | 0.08 | 83 | 1008.2 |
| 20260506125506 | 16 | 174 | 3.2 | 8.0 | 0.08 | 0.08 | 0.08 | 83 | 1008.2 |
| 20260506125007 | 16 | 131 | 3.2 | 4.8 | 0.05 | 0.05 | 0.05 | 82 | 1008.2 |
| 20260506124524 | 16 | 193 | 1.6 | 6.4 | 0.05 | 0.05 | 0.05 | 82 | 1008.3 |
| 20260506124008 | 16 | 168 | 3.2 | 8.0 | 0.05 | 0.05 | 0.05 | 81 | 1008.4 |
| 20260506123508 | 16 | 162 | 1.6 | 8.0 | 0.03 | 0.03 | 0.03 | 81 | 1008.4 |
| 20260506123029 | 17 | 170 | 1.6 | 8.0 | 0.03 | 0.03 | 0.03 | 80 | 1008.4 |
| 20260506122505 | 17 | 134 | 3.2 | 8.0 | 0.03 | 0.03 | 0.03 | 80 | 1008.5 |
| 20260506122011 | 17 | 190 | 3.2 | 9.7 | 0.03 | 0.03 | 0.03 | 79 | 1008.6 |
| 20260506121524 | 17 | 172 | 1.6 | 9.7 | 0.03 | 0.03 | 0.03 | 79 | 1008.7 |
| 20260506121007 | 17 | 162 | 3.2 | 11.3 | 0.00 | 0.00 | 0.00 | 77 | 1008.6 |
| 20260506120511 | 17 | 134 | 3.2 | 11.3 | 0.00 | 0.00 | 0.00 | 77 | 1008.6 |
| 20260506120037 | 17 | 169 | 6.4 | 11.3 | 0.00 | 0.00 | 0.00 | 77 | 1008.6 |
| 20260506115507 | 17 | 173 | 1.6 | 11.3 | 0.00 | 0.00 | 0.00 | 76 | 1008.5 |
| 20260506115009 | 17 | 254 | 6.4 | 11.3 | 0.00 | 0.00 | 0.00 | 75 | 1008.2 |
| 20260506114513 | 17 | 195 | 3.2 | 9.7 | 0.00 | 0.00 | 0.00 | 74 | 1008.2 |
| 20260506114010 | 17 | 188 | 4.8 | 9.7 | 0.00 | 0.00 | 0.00 | 73 | 1008.1 |
| 20260506113506 | 17 | 161 | 3.2 | 9.7 | 0.00 | 0.00 | 0.00 | 73 | 1008.0 |
| 20260506113008 | 17 | 166 | 3.2 | 11.3 | 0.00 | 0.00 | 0.00 | 72 | 1008.0 |
| 20260506112506 | 17 | 167 | 6.4 | 11.3 | 0.00 | 0.00 | 0.00 | 73 | 1008.0 |
| 20260506112006 | 18 | 175 | 6.4 | 9.7 | 0.00 | 0.00 | 0.00 | 72 | 1008.0 |
| 20260506111507 | 18 | 185 | 4.8 | 11.3 | 0.00 | 0.00 | 0.00 | 71 | 1007.9 |
| 20260506111006 | 18 | 181 | 6.4 | 14.5 | 0.00 | 0.00 | 0.00 | 70 | 1007.9 |
| 20260506110504 | 18 | 171 | 6.4 | 16.1 | 0.00 | 0.00 | 0.00 | 69 | 1007.8 |
| 20260506110016 | 18 | 212 | 8.0 | 19.3 | 0.00 | 0.00 | 0.00 | 68 | 1007.7 |
| 20260506105508 | 18 | 167 | 6.4 | 19.3 | 0.00 | 0.00 | 0.00 | 68 | 1007.6 |
| 20260506105002 | 18 | 150 | 6.4 | 11.3 | 0.00 | 0.00 | 0.00 | 68 | 1007.5 |
| 20260506104503 | 18 | 165 | 4.8 | 16.1 | 0.00 | 0.00 | 0.00 | 68 | 1007.5 |
| 20260506104002 | 18 | 168 | 8.0 | 16.1 | 0.00 | 0.00 | 0.00 | 67 | 1007.4 |
| 20260506103504 | 18 | 208 | 3.2 | 16.1 | 0.00 | 0.00 | 0.00 | 67 | 1007.5 |
| 20260506103011 | 18 | 172 | 6.4 | 16.1 | 0.00 | 0.00 | 0.00 | 67 | 1007.5 |
| 20260506102504 | 18 | 170 | 6.4 | 14.5 | 0.00 | 0.00 | 0.00 | 66 | 1007.5 |
| 20260506102006 | 18 | 184 | 6.4 | 19.3 | 0.00 | 0.00 | 0.00 | 66 | 1007.4 |
| 20260506101520 | 18 | 221 | 6.4 | 19.3 | 0.00 | 0.00 | 0.00 | 66 | 1007.4 |
| 20260506101007 | 18 | 198 | 4.8 | 17.7 | 0.00 | 0.00 | 0.00 | 66 | 1007.3 |
| 20260506100504 | 18 | 219 | 6.4 | 17.7 | 0.00 | 0.00 | 0.00 | 65 | 1007.4 |
| 20260506100008 | 18 | 272 | 6.4 | 16.1 | 0.00 | 0.00 | 0.00 | 65 | 1007.4 |
| 20260506095505 | 18 | 197 | 6.4 | 16.1 | 0.00 | 0.00 | 0.00 | 65 | 1007.2 |
| 20260506095004 | 18 | 193 | 4.8 | 16.1 | 0.00 | 0.00 | 0.00 | 65 | 1007.3 |
| 20260506094512 | 19 | 156 | 4.8 | 16.1 | 0.00 | 0.00 | 0.00 | 64 | 1007.2 |
| 20260506094003 | 19 | 161 | 8.0 | 14.5 | 0.00 | 0.00 | 0.00 | 64 | 1007.2 |
| 20260506093507 | 19 | 160 | 3.2 | 14.5 | 0.00 | 0.00 | 0.00 | 64 | 1007.0 |
| 20260506093023 | 19 | 155 | 6.4 | 14.5 | 0.00 | 0.00 | 0.00 | 64 | 1007.0 |
| 20260506092503 | 18 | 156 | 4.8 | 11.3 | 0.00 | 0.00 | 0.00 | 64 | 1007.1 |
| 20260506092003 | 19 | 197 | 4.8 | 11.3 | 0.00 | 0.00 | 0.00 | 63 | 1007.3 |
| 20260506091514 | 19 | 160 | 3.2 | 11.3 | 0.00 | 0.00 | 0.00 | 63 | 1007.3 |
| 20260506091003 | 19 | 146 | 3.2 | 11.3 | 0.00 | 0.00 | 0.00 | 62 | 1007.3 |
| 20260506090503 | 19 | 150 | 3.2 | 14.5 | 0.00 | 0.00 | 0.00 | 62 | 1007.5 |
| 20260506090019 | 19 | 171 | 4.8 | 14.5 | 0.00 | 0.00 | 0.00 | 62 | 1007.4 |
| 20260506085511 | 19 | 188 | 4.8 | 12.9 | 0.00 | 0.00 | 0.00 | 62 | 1007.5 |
| 20260506085008 | 19 | 198 | 6.4 | 11.3 | 0.00 | 0.00 | 0.00 | 62 | 1007.6 |
| 20260506084525 | 19 | 218 | 4.8 | 9.7 | 0.00 | 0.00 | 0.00 | 62 | 1007.5 |
| 20260506084004 | 19 | 200 | 4.8 | 8.0 | 0.00 | 0.00 | 0.00 | 62 | 1007.4 |
| 20260506083504 | 19 | 173 | 1.6 | 17.7 | 0.00 | 0.00 | 0.00 | 61 | 1007.5 |
| 20260506083013 | 20 | 233 | 8.0 | 17.7 | 0.00 | 0.00 | 0.00 | 60 | 1007.5 |
| 20260506082504 | 20 | 246 | 3.2 | 11.3 | 0.00 | 0.00 | 0.00 | 60 | 1007.5 |
| 20260506082005 | 20 | 200 | 4.8 | 11.3 | 0.00 | 0.00 | 0.00 | 60 | 1007.5 |
| 20260506081519 | 20 | 185 | 3.2 | 16.1 | 0.00 | 0.00 | 0.00 | 59 | 1007.5 |
| 20260506081008 | 20 | 120 | 6.4 | 16.1 | 0.00 | 0.00 | 0.00 | 59 | 1007.4 |
| 20260506080509 | 20 | 208 | 8.0 | 16.1 | 0.00 | 0.00 | 0.00 | 58 | 1007.5 |
| 20260506073506 | 20 | 174 | 6.4 | 17.7 | 0.00 | 0.00 | 0.00 | 57 | 1007.6 |
| 20260506073024 | 20 | 196 | 8.0 | 17.7 | 0.00 | 0.00 | 0.00 | 57 | 1007.6 |
| 20260506072513 | 20 | 193 | 6.4 | 16.1 | 0.00 | 0.00 | 0.00 | 56 | 1007.6 |
| 20260506072003 | 20 | 183 | 6.4 | 16.1 | 0.00 | 0.00 | 0.00 | 56 | 1007.6 |
| 20260506071507 | 20 | 187 | 6.4 | 14.5 | 0.00 | 0.00 | 0.00 | 56 | 1007.7 |
| 20260506071003 | 21 | 237 | 4.8 | 14.5 | 0.00 | 0.00 | 0.00 | 56 | 1007.8 |
| 20260506070504 | 20 | 160 | 6.4 | 17.7 | 0.00 | 0.00 | 0.00 | 56 | 1007.8 |
| 20260506062505 | 20 | 181 | 4.8 | 9.7 | 0.00 | 0.00 | 0.00 | 55 | 1008.1 |
| 20260506062006 | 20 | 241 | 6.4 | 14.5 | 0.00 | 0.00 | 0.00 | 55 | 1008.3 |
| 20260506061542 | 21 | 165 | 6.4 | 14.5 | 0.00 | 0.00 | 0.00 | 54 | 1008.4 |
| 20260506061008 | 21 | 203 | 6.4 | 12.9 | 0.00 | 0.00 | 0.00 | 54 | 1008.3 |
| 20260506060511 | 20 | 189 | 3.2 | 11.3 | 0.00 | 0.00 | 0.00 | 54 | 1008.3 |
| 20260506051005 | 21 | 191 | 6.4 | 17.7 | 0.00 | 0.00 | 0.00 | 50 | 1008.8 |
| 20260506050506 | 21 | 172 | 6.4 | 17.7 | 0.00 | 0.00 | 0.00 | 50 | 1008.7 |
| 20260506045008 | 21 | 235 | 4.8 | 16.1 | 0.00 | 0.00 | 0.00 | 49 | 1008.6 |
| 20260506044529 | 21 | 229 | 6.4 | 16.1 | 0.00 | 0.00 | 0.00 | 48 | 1008.6 |
| 20260506044010 | 21 | 134 | 3.2 | 14.5 | 0.00 | 0.00 | 0.00 | 48 | 1008.6 |
| 20260506043511 | 21 | 150 | 6.4 | 16.1 | 0.00 | 0.00 | 0.00 | 48 | 1008.7 |
| 20260506043024 | 21 | 146 | 8.0 | 16.1 | 0.00 | 0.00 | 0.00 | 48 | 1008.7 |
| 20260506042505 | 21 | 158 | 4.8 | 14.5 | 0.00 | 0.00 | 0.00 | 47 | 1008.7 |
| 20260506042008 | 21 | 199 | 6.4 | 20.9 | 0.00 | 0.00 | 0.00 | 46 | 1008.7 |
| 20260506041524 | 21 | 205 | 4.8 | 20.9 | 0.00 | 0.00 | 0.00 | 46 | 1008.7 |
| 20260506041008 | 21 | 156 | 4.8 | 16.1 | 0.00 | 0.00 | 0.00 | 46 | 1008.6 |
| 20260506040509 | 21 | 159 | 6.4 | 16.1 | 0.00 | 0.00 | 0.00 | 46 | 1008.7 |
| 20260506040029 | 21 | 264 | 6.4 | 16.1 | 0.00 | 0.00 | 0.00 | 45 | 1008.7 |
| 20260506035509 | 21 | 173 | 6.4 | 17.7 | 0.00 | 0.00 | 0.00 | 45 | 1008.7 |
| 20260506035016 | 21 | 205 | 8.0 | 17.7 | 0.00 | 0.00 | 0.00 | 45 | 1008.8 |
| 20260506034513 | 21 | 122 | 4.8 | 11.3 | 0.00 | 0.00 | 0.00 | 44 | 1008.7 |
| 20260506034002 | 21 | 181 | 4.8 | 12.9 | 0.00 | 0.00 | 0.00 | 44 | 1008.7 |
| 20260506033506 | 21 | 143 | 4.8 | 12.9 | 0.00 | 0.00 | 0.00 | 43 | 1008.7 |
| 20260506033025 | 21 | 132 | 4.8 | 11.3 | 0.00 | 0.00 | 0.00 | 43 | 1008.6 |
| 20260506032507 | 21 | 149 | 4.8 | 16.1 | 0.00 | 0.00 | 0.00 | 42 | 1008.6 |
| 20260506032012 | 21 | 168 | 4.8 | 16.1 | 0.00 | 0.00 | 0.00 | 42 | 1008.7 |
| 20260506031539 | 21 | 189 | 4.8 | 16.1 | 0.00 | 0.00 | 0.00 | 42 | 1008.7 |
| 20260506031013 | 21 | 153 | 4.8 | 9.7 | 0.00 | 0.00 | 0.00 | 42 | 1008.6 |
| 20260506030505 | 21 | 183 | 4.8 | 11.3 | 0.00 | 0.00 | 0.00 | 41 | 1008.7 |
| 20260506030020 | 21 | 186 | 6.4 | 17.7 | 0.00 | 0.00 | 0.00 | 42 | 1008.7 |
| 20260506025505 | 21 | 160 | 8.0 | 17.7 | 0.00 | 0.00 | 0.00 | 41 | 1008.7 |
| 20260506025007 | 21 | 224 | 6.4 | 16.1 | 0.00 | 0.00 | 0.00 | 41 | 1008.7 |
| 20260506024539 | 21 | 201 | 6.4 | 16.1 | 0.00 | 0.00 | 0.00 | 41 | 1008.7 |
| 20260506024014 | 21 | 191 | 4.8 | 11.3 | 0.00 | 0.00 | 0.00 | 41 | 1008.8 |
| 20260506023513 | 21 | 150 | 4.8 | 11.3 | 0.00 | 0.00 | 0.00 | 41 | 1008.8 |
| 20260506023030 | 21 | 158 | 1.6 | 9.7 | 0.00 | 0.00 | 0.00 | 42 | 1008.9 |
| 20260506022503 | 21 | 165 | 3.2 | 6.4 | 0.00 | 0.00 | 0.00 | 42 | 1008.8 |
| 20260506022007 | 21 | 181 | 1.6 | 4.8 | 0.00 | 0.00 | 0.00 | 41 | 1008.9 |
| 20260506021518 | 21 | 176 | 1.6 | 6.4 | 0.00 | 0.00 | 0.00 | 41 | 1008.8 |